GEFSCGP_500_meanwind_000.txt.gz
Wind_Speed
21 22 22 22 21 20 19 19 20 22 22 19 19 22 25 25 28 30 32 36 39 42 44 45 45 46 47 48 49 50 52 54 56 57 58 59 59 59 59 58 58 57 56 56
19 19 19 19 18 17 18 17 18 19 20 21 24 28 30 31 33 36 40 45 47 46 46 47 48 49 50 51 52 52 53 54 56 57 59 60 62 62 61 60 59 58 57 57
16 15 15 15 15 16 17 19 20 23 25 27 31 36 38 39 42 46 50 52 53 54 53 51 50 50 51 52 52 53 53 55 56 58 60 62 64 64 64 62 61 60 58 57
14 15 16 17 18 19 21 24 26 29 32 35 38 43 45 48 50 53 55 55 57 59 59 59 57 56 56 56 56 56 56 56 56 56 58 61 63 63 63 63 62 61 59 56
17 18 19 20 22 24 26 29 32 35 38 41 43 45 49 52 56 58 58 59 60 61 61 60 60 62 63 64 65 65 66 64 63 61 60 61 63 64 64 63 62 61 58 56
18 19 21 23 25 28 30 33 35 37 40 42 45 49 54 56 57 58 58 58 59 60 62 64 67 69 72 74 74 75 76 74 72 68 63 63 64 64 63 61 60 58 56 54
22 23 26 27 29 32 35 37 39 41 44 47 50 53 54 54 55 57 59 62 64 66 70 73 76 79 80 81 81 80 80 77 73 68 63 63 63 63 62 60 57 55 53 52
25 26 29 31 34 37 40 41 43 45 47 49 51 52 54 58 62 64 67 70 72 75 80 84 85 86 86 85 84 80 75 70 67 64 59 57 57 59 59 55 54 50 48 48
31 32 35 37 40 43 44 45 48 49 49 48 51 59 64 66 68 69 73 76 79 82 86 88 88 87 85 81 76 72 68 63 61 59 55 52 52 53 51 48 50 48 48 48
36 37 39 42 43 44 47 48 48 49 51 54 56 63 68 69 70 75 79 81 84 87 87 84 81 78 72 66 61 59 60 58 55 53 53 55 48 53 53 49 45 46 47 46
39 40 42 44 46 47 47 47 49 53 56 60 63 63 67 70 75 79 80 82 83 81 75 70 66 61 56 52 51 52 54 56 55 52 52 57 54 52 51 52 45 43 44 46
40 43 45 46 47 49 50 49 50 54 58 62 65 66 70 74 78 79 77 75 71 66 61 57 59 62 62 59 56 53 52 53 53 53 53 56 53 54 59 53 46 42 40 41
43 46 46 47 48 50 50 51 56 60 64 65 69 70 74 75 77 73 70 66 62 57 55 56 62 69 67 65 59 56 53 49 46 48 51 52 51 49 52 53 45 40 38 37
44 44 45 45 47 51 53 55 61 66 67 68 68 74 74 76 71 66 64 61 56 55 57 63 73 73 64 60 55 51 45 42 38 39 45 43 47 50 43 42 39 38 36 38
46 45 46 48 51 53 56 60 65 68 69 69 70 74 72 69 64 62 60 54 53 54 60 70 74 66 54 45 41 39 35 33 30 34 38 41 39 42 40 41 38 39 44 43
48 48 51 52 54 57 60 65 70 71 72 70 71 69 65 60 56 53 50 51 53 57 65 73 71 57 41 34 29 26 26 28 26 27 30 33 36 36 35 39 40 40 40 34
47 50 53 55 58 62 66 70 74 74 71 68 68 65 62 54 48 47 48 49 53 59 66 69 59 35 24 20 18 18 22 28 22 18 21 26 27 30 32 34 36 40 36 35
51 55 58 60 63 67 70 76 76 74 67 60 59 57 54 51 45 44 45 47 51 57 62 59 43 24 18 14 16 18 21 22 18 12 12 19 18 17 19 20 23 26 29 32
56 57 60 64 68 72 75 78 75 72 64 57 55 52 49 42 37 38 40 45 48 52 54 47 35 22 15 13 17 17 17 18 18 11 9 13 13 14 16 20 23 24 27 30
56 59 62 68 73 76 75 76 71 65 58 52 50 49 48 39 33 34 38 43 43 44 45 37 28 20 15 15 15 16 15 17 17 14 10 12 16 21 26 27 26 27 29 32
58 61 65 71 76 76 74 70 65 58 54 48 46 47 47 39 33 32 36 39 38 36 37 33 25 20 17 16 17 16 15 15 16 17 16 17 19 22 25 27 28 29 31 32
61 65 70 74 76 72 68 61 54 50 47 46 46 46 42 35 31 31 34 35 35 35 33 31 27 22 21 20 18 16 17 18 19 19 21 25 27 28 28 29 30 31 32 33
64 69 72 73 69 65 57 52 48 46 47 48 46 42 36 30 28 31 33 34 36 35 33 31 28 26 25 23 21 21 21 23 24 25 26 28 32 34 33 33 33 34 34 34
68 72 72 67 63 59 52 47 45 47 48 47 42 36 31 27 29 30 30 32 35 36 35 33 32 30 28 27 25 25 26 27 28 30 33 35 36 38 40 40 40 39 38 38
72 72 68 62 58 50 46 45 46 47 45 41 37 33 30 30 30 29 30 33 36 36 36 36 35 35 34 32 30 28 28 29 31 34 37 39 41 43 43 44 46 46 45 46
72 69 64 57 53 48 45 43 46 45 42 38 33 31 31 30 31 31 32 34 35 37 38 38 37 38 37 36 34 33 32 32 34 35 36 38 41 42 44 45 46 48 49 50

GEFSCGP_500_meanwind_006.txt.gz
Wind_Speed
14 15 15 16 16 17 17 18 19 21 20 21 23 30 33 30 32 35 36 36 38 39 41 42 43 45 46 48 49 50 50 51 53 55 56 57 58 59 60 61 62 63 63 62
15 15 15 15 16 18 19 20 21 24 26 27 27 31 35 35 35 36 38 40 41 41 42 43 45 46 47 49 52 53 52 52 53 54 55 56 57 58 59 59 60 61 62 62
18 18 19 19 20 21 22 23 25 27 29 31 34 35 37 37 37 38 41 43 43 43 44 46 48 50 51 53 55 57 59 60 60 61 62 63 63 63 64 65 65 64 64 63
18 19 20 21 23 24 26 28 30 32 35 36 38 40 41 42 41 42 43 45 45 47 50 53 56 57 58 60 62 65 67 68 70 71 72 73 73 72 71 71 72 71 70 69
22 22 23 25 27 28 30 32 34 36 37 38 39 40 43 46 47 47 47 50 53 56 60 63 66 67 68 70 72 74 75 76 78 79 80 80 79 78 77 76 76 76 75 73
22 24 26 29 31 32 34 36 38 40 41 43 44 45 50 52 53 56 58 61 64 67 70 73 74 76 77 79 81 82 83 84 84 84 84 83 81 78 77 75 73 74 76 75
25 25 28 30 32 34 37 40 42 43 44 43 45 49 53 51 59 64 67 70 72 74 75 76 78 80 81 83 85 85 84 83 82 82 80 78 75 72 70 67 66 66 67 67
27 30 31 34 35 37 38 40 42 44 45 47 50 53 57 60 64 69 72 75 76 75 76 79 81 83 84 84 84 83 81 78 75 71 68 65 62 60 58 56 56 57 58 57
28 31 33 35 38 40 41 41 42 44 47 52 55 58 61 63 69 74 77 78 78 78 78 80 81 81 81 80 77 75 71 69 66 63 61 60 61 61 60 58 55 55 55 56
29 30 33 36 39 41 43 44 46 48 52 55 59 61 61 66 75 80 79 78 79 79 79 79 79 78 74 69 64 61 61 62 64 66 66 66 66 65 63 60 57 55 52 54
30 32 36 40 42 43 45 47 50 53 56 60 64 64 64 71 76 78 79 78 77 78 77 75 72 66 59 55 55 57 59 61 62 62 60 59 57 56 55 54 54 53 52 52
31 33 37 40 42 43 46 50 54 58 60 62 65 70 64 71 75 76 74 71 71 70 68 64 57 51 49 50 51 52 54 54 50 46 42 40 38 39 41 44 47 48 47 48
33 35 38 41 44 46 50 54 58 61 63 65 69 73 70 73 72 69 68 68 67 63 58 52 47 45 45 46 47 47 49 47 42 38 35 34 33 32 32 33 36 39 40 40
34 37 40 43 47 51 54 56 58 63 67 72 75 78 77 74 71 68 66 64 61 55 50 45 42 42 41 44 45 44 44 42 38 36 35 35 34 30 28 27 28 29 31 33
37 40 44 47 51 54 58 60 62 68 73 77 79 78 72 68 64 61 60 59 54 49 44 40 39 39 39 42 43 41 40 39 36 34 35 36 34 27 22 20 20 21 23 26
39 44 49 51 55 59 63 65 69 74 77 76 76 71 63 60 58 57 58 57 52 46 41 38 36 36 38 40 41 39 37 37 34 33 34 36 33 23 15 11 11 14 17 20
43 48 53 56 59 62 65 71 73 77 73 73 71 64 60 58 56 56 57 53 48 41 37 35 33 34 37 38 39 38 37 36 33 31 30 32 30 22 14 9 9 12 16 19
48 52 56 60 64 63 72 75 75 75 67 67 63 58 54 54 51 51 50 46 41 37 34 32 31 33 35 37 38 38 37 35 33 30 27 27 26 21 14 11 10 12 15 18
51 55 59 63 66 67 74 75 75 74 63 62 56 51 50 48 44 43 43 42 40 36 34 32 33 34 36 37 38 38 37 35 33 30 28 26 24 20 16 13 12 13 14 17
54 58 62 65 68 71 76 76 74 69 58 55 50 50 49 46 45 43 42 41 39 36 34 34 35 36 37 39 40 39 38 36 34 32 30 28 26 23 20 17 15 15 16 18
57 62 65 68 70 71 76 74 70 61 58 52 49 49 46 45 45 44 42 41 40 38 36 36 37 38 39 41 42 41 39 37 35 33 32 31 30 28 25 23 22 21 22 23
59 62 65 69 70 71 74 70 64 55 49 48 48 47 44 43 43 42 40 40 39 39 39 39 40 41 42 44 44 44 42 40 38 36 34 33 32 32 31 30 29 29 29 30
60 62 65 69 70 72 69 63 56 49 48 47 46 43 40 42 43 41 40 40 41 42 43 43 44 45 46 47 46 45 44 42 39 37 35 34 34 34 34 34 35 35 36 37
62 64 67 71 74 71 67 62 53 46 46 47 46 42 40 41 42 42 41 42 44 45 46 47 47 48 48 48 47 46 45 43 40 37 35 34 34 34 35 36 37 38 39 41
61 65 69 72 75 73 66 58 50 44 45 45 45 42 40 41 43 43 44 45 46 47 49 50 51 51 50 49 48 47 46 44 42 40 38 36 36 36 36 38 39 40 41 43
61 65 70 73 75 72 63 54 47 44 44 44 44 42 40 40 43 45 47 48 49 51 52 54 54 54 52 51 50 50 49 47 45 43 42 41 41 40 41 41 42 43 44 45

GEFSCGP_500_meanwind_012.txt.gz
Wind_Speed
15 13 12 12 12 13 14 17 19 21 22 25 28 29 30 30 31 33 34 36 38 40 43 44 45 46 47 48 50 52 53 55 56 56 56 57 58 60 61 62 63 63 62 62
11 12 12 13 14 15 16 18 21 23 25 27 30 31 31 33 35 36 38 41 43 45 48 50 51 51 52 54 57 59 62 63 64 65 65 64 64 65 66 67 67 68 67 67
11 11 12 14 16 18 19 21 23 24 25 29 32 33 35 37 40 42 45 48 51 54 56 58 59 61 62 63 64 65 67 69 71 71 71 71 70 70 72 72 72 73 73 73
11 12 13 15 17 19 21 23 26 28 29 31 35 38 40 44 46 50 53 56 59 62 66 68 69 70 70 70 70 70 70 72 74 76 78 78 77 76 77 77 77 77 78 78
12 13 15 16 17 19 22 25 28 31 33 34 38 43 46 49 52 55 58 61 65 68 72 75 77 77 76 75 74 74 74 76 78 81 82 83 82 81 80 80 80 79 79 79
13 14 15 16 18 21 24 27 31 35 38 40 44 49 53 55 59 61 64 68 72 74 76 78 79 80 80 79 79 79 80 81 82 82 82 81 79 77 75 75 76 76 76 76
13 14 15 17 20 23 27 30 35 40 43 46 50 55 59 62 65 69 72 75 76 77 77 78 79 80 81 82 83 83 82 80 79 76 71 67 63 61 60 61 63 65 66 68
15 16 17 20 22 26 30 34 39 43 47 51 55 60 64 68 72 75 77 77 76 76 77 78 80 82 84 84 84 83 79 73 66 59 52 48 47 47 49 52 55 58 61 63
17 19 20 23 26 30 34 39 43 48 53 58 61 64 69 73 77 77 75 73 72 73 75 78 81 83 83 82 79 75 67 58 50 42 38 38 40 42 44 46 47 49 52 55
20 22 25 28 30 34 39 44 49 54 59 62 64 69 73 77 74 71 68 67 69 71 73 73 72 70 66 63 57 51 46 41 36 33 33 35 37 39 39 39 41 43 44 44
23 26 30 32 34 38 42 47 52 57 60 65 69 73 75 72 68 65 64 66 66 65 61 57 53 53 52 47 41 36 32 30 29 30 31 33 35 36 37 39 41 42 41 39
25 28 32 35 38 41 45 50 55 59 62 66 71 74 72 67 63 62 62 61 59 55 52 51 50 48 44 39 33 28 26 26 26 28 29 32 34 35 36 37 38 38 35 32
28 31 34 37 41 45 48 53 57 61 65 68 71 68 69 64 61 59 56 53 51 49 47 47 46 43 38 34 30 27 25 26 27 28 30 32 34 34 34 34 34 33 30 25
29 31 34 38 43 48 51 55 59 64 68 71 72 72 70 66 61 55 50 48 48 46 45 44 42 40 36 33 31 29 28 29 30 31 32 33 34 34 32 31 30 28 25 21
30 33 35 40 46 50 54 57 62 67 71 73 73 70 67 63 56 52 49 48 45 45 44 43 42 40 38 35 33 33 32 33 33 34 35 34 34 34 32 29 27 25 23 19
32 35 38 42 48 53 56 61 66 69 72 73 73 68 65 57 51 48 46 44 43 43 43 43 43 42 40 38 37 36 36 37 37 38 38 37 35 34 32 30 26 23 21 18
33 37 42 46 51 57 59 64 68 71 74 75 72 68 61 53 49 47 45 43 41 41 43 44 45 45 44 43 42 41 40 40 40 41 41 40 38 36 33 31 27 24 21 19
35 40 45 50 55 58 62 65 69 72 75 73 68 61 54 50 47 46 44 42 40 42 44 46 48 48 48 48 48 47 46 45 45 44 43 42 40 38 35 33 30 26 23 21
37 42 48 53 56 60 63 67 70 74 74 72 65 57 49 46 44 43 43 42 42 44 47 50 51 52 53 53 52 51 51 50 48 47 45 43 41 39 36 34 32 30 27 25
40 45 50 54 58 61 64 67 71 76 73 69 60 52 47 45 42 42 43 43 44 46 50 53 55 56 56 56 55 54 53 52 51 49 46 44 41 39 36 34 33 32 31 29
44 49 52 56 59 61 66 68 72 73 74 68 56 49 45 44 43 44 45 46 48 50 53 55 58 59 59 58 58 58 57 56 54 52 49 47 44 41 38 35 33 33 32 32
47 51 54 58 60 63 66 68 71 73 72 61 50 45 43 43 44 45 47 49 51 54 56 58 59 60 61 62 61 60 58 56 55 53 51 49 46 44 42 39 36 35 34 34
49 52 55 57 60 63 66 69 72 74 67 56 45 42 42 43 45 47 50 53 55 57 58 60 61 61 61 60 57 55 53 51 49 47 46 46 45 44 44 43 41 39 38 37
51 54 56 58 60 64 67 70 72 71 63 51 43 41 42 44 47 50 53 56 57 58 60 61 59 55 52 51 50 49 49 48 47 45 43 41 39 39 39 41 43 43 43 42
53 56 57 58 61 64 66 69 72 69 59 49 43 42 43 47 50 53 56 57 59 60 59 55 50 47 47 48 49 49 50 50 49 47 45 42 39 36 34 34 35 39 43 46
54 56 57 58 61 63 66 70 72 67 57 48 43 43 46 49 53 56 57 58 59 57 50 45 44 45 46 48 49 50 51 51 50 48 46 43 40 37 34 32 31 31 33 37

GEFSCGP_500_meanwind_018.txt.gz
Wind_Speed
7 7 8 9 9 11 12 14 15 18 21 25 28 32 35 39 42 46 49 53 56 60 63 66 69 71 73 75 76 76 75 75 74 74 74 74 74 74 73 73 72 72 71 70
6 6 7 7 9 10 12 14 17 19 23 27 32 37 41 45 48 51 56 59 62 66 69 73 76 79 81 83 83 82 82 81 80 80 79 79 80 80 80 79 78 77 76 76
6 7 8 9 10 12 14 17 21 24 28 32 38 44 47 51 54 58 62 65 68 72 76 80 83 85 86 87 87 88 87 87 86 85 85 84 83 84 85 85 84 83 83 82
8 9 11 12 13 16 18 21 25 29 34 38 43 49 51 55 60 63 66 70 74 79 82 84 85 85 86 86 86 84 82 81 80 79 80 81 82 83 85 86 87 87 87 87
10 12 12 13 16 18 22 25 29 33 38 43 48 53 56 60 63 67 71 75 79 82 83 82 82 82 81 77 73 68 65 63 62 61 61 62 63 65 68 74 79 82 84 86
13 14 15 16 18 21 25 29 33 36 41 46 51 56 61 64 68 72 75 78 80 80 79 78 76 73 67 60 56 54 52 51 51 51 50 49 46 43 43 46 52 59 66 70
17 17 18 19 22 25 29 32 35 40 44 49 54 59 63 68 73 76 78 79 79 77 74 70 66 58 51 50 49 48 49 48 47 46 45 43 40 35 31 28 29 34 40 46
20 21 22 23 25 29 31 34 38 43 48 52 56 60 66 72 74 77 78 78 75 70 65 61 55 49 47 46 46 47 47 47 46 45 43 41 39 34 29 25 23 24 26 30
23 23 24 25 27 30 33 37 41 46 51 55 59 63 70 73 75 77 76 73 68 62 58 54 50 47 44 44 46 47 47 47 46 45 43 41 38 34 31 28 25 25 25 26
24 25 25 26 28 30 35 40 45 50 54 59 63 69 72 74 75 76 74 68 61 56 53 50 47 44 43 44 46 48 49 48 48 46 44 42 39 35 32 30 28 28 28 28
25 26 26 27 29 33 37 42 48 52 56 62 67 70 72 74 76 76 71 62 55 51 49 48 46 45 45 46 49 50 50 50 49 48 46 44 42 39 37 34 32 32 31 31
26 26 27 28 31 34 38 44 50 54 59 63 68 72 74 75 76 74 66 58 51 49 49 49 48 48 48 50 52 53 54 54 53 52 50 48 46 44 42 40 38 37 36 36
26 27 28 30 34 37 42 48 52 56 60 64 68 70 74 75 74 69 62 54 49 48 49 50 50 51 52 53 55 57 58 58 58 57 55 53 51 48 46 44 43 41 40 39
25 26 28 32 36 40 45 50 54 57 62 66 68 71 73 75 73 66 58 51 48 49 50 51 52 54 55 57 59 60 61 62 61 60 58 57 55 52 50 48 46 44 43 41
27 27 29 33 37 41 46 51 56 60 64 67 70 72 75 76 73 66 57 50 48 50 53 54 56 58 59 61 62 62 62 62 60 59 57 56 54 53 51 49 47 46 44 42
28 30 32 33 38 42 48 54 59 63 66 68 71 73 77 76 71 63 55 50 50 52 56 58 60 62 64 64 62 60 58 57 55 54 53 52 51 49 47 46 46 45 44 42
29 32 34 37 41 45 51 57 62 65 67 70 72 74 78 76 69 61 54 52 53 56 59 62 64 65 64 61 58 55 53 52 52 52 51 51 49 47 45 43 42 42 42 41
31 33 36 40 44 49 54 59 64 67 68 71 73 76 78 75 67 57 53 53 55 59 62 64 64 61 57 53 52 52 52 53 54 55 54 53 51 48 45 42 39 38 38 39
30 33 37 41 46 51 56 62 66 69 69 72 74 77 77 72 62 55 54 55 58 61 63 63 59 54 51 51 51 52 53 55 56 57 57 55 53 49 45 41 37 35 34 35
31 33 37 43 48 54 59 64 68 70 70 73 74 76 75 70 61 56 55 57 60 62 61 57 52 49 49 50 51 53 55 57 58 58 58 56 53 50 45 41 36 33 31 30
34 37 40 45 50 56 61 66 69 68 70 72 74 75 73 65 58 57 57 59 61 60 56 51 48 47 48 50 53 55 57 59 60 60 59 57 54 50 46 42 38 33 29 27
36 40 43 48 53 58 62 66 68 68 69 71 73 74 69 61 56 57 58 60 60 56 51 47 46 47 49 52 55 57 59 60 62 62 60 57 54 50 46 42 39 35 31 27
36 39 43 48 53 58 63 66 67 68 68 70 73 72 65 58 55 57 58 59 57 52 47 45 46 48 51 54 57 59 61 62 63 62 60 57 53 50 47 43 40 37 33 28
38 40 44 50 55 60 64 67 67 67 67 70 72 69 61 56 56 57 58 57 53 48 45 45 47 49 53 55 58 60 62 63 63 62 60 58 54 51 48 46 42 38 34 30
40 43 45 50 56 61 64 66 66 65 67 70 70 65 59 55 56 57 58 55 49 45 44 45 48 51 54 56 59 61 63 64 62 61 61 60 58 54 50 46 44 40 35 31
40 42 46 51 57 62 64 65 64 65 67 68 68 62 57 55 56 57 56 51 46 43 44 46 49 52 54 56 59 62 64 63 60 60 61 62 61 59 55 49 44 40 37 32

GEFSCGP_500_meanwind_024.txt.gz
Wind_Speed
3 4 5 6 7 9 11 13 16 18 22 25 28 31 33 38 43 48 53 58 62 66 70 73 74 76 78 79 80 80 80 77 73 68 63 59 55 51 49 49 50 53 57 64
6 7 9 10 11 13 15 17 19 21 24 28 32 33 36 42 46 51 56 62 67 71 73 74 76 78 79 80 79 77 73 67 62 58 54 50 45 43 43 44 45 45 47 50
8 10 12 13 14 15 17 20 22 25 28 30 36 37 40 45 50 56 61 67 71 74 76 77 78 79 79 78 74 69 63 58 55 52 49 46 45 45 45 44 44 45 45 45
11 13 14 15 17 18 20 23 26 29 31 33 38 43 44 49 55 61 66 70 74 76 77 78 79 79 77 74 67 61 56 54 52 51 49 47 46 45 45 44 44 44 44 44
14 15 16 17 19 21 23 26 29 31 34 36 39 46 49 54 60 65 70 73 75 77 77 78 78 76 74 68 61 56 54 53 52 52 51 50 50 49 48 47 46 44 43 43
15 16 17 18 19 21 24 27 30 33 37 39 44 48 54 59 64 68 72 75 76 77 78 78 76 73 68 62 57 54 54 54 55 54 54 54 54 54 52 51 49 46 44 42
17 18 18 19 19 21 24 28 33 38 42 43 46 51 58 63 67 71 74 75 77 78 78 75 72 68 63 59 56 55 56 58 58 58 58 58 57 57 56 55 53 50 46 43
19 19 19 20 20 22 24 27 32 37 42 45 49 54 61 66 70 73 75 76 77 77 75 72 68 64 60 58 58 59 60 61 61 60 59 58 58 57 56 56 54 52 49 45
19 19 20 20 21 23 26 30 33 38 44 49 53 58 65 69 72 74 75 76 77 75 72 68 65 62 60 60 61 62 62 61 59 57 55 54 53 53 52 52 52 51 50 47
19 18 19 19 21 24 28 33 37 40 46 53 58 63 67 71 73 75 75 76 75 72 69 65 63 62 63 64 64 62 59 56 53 51 51 50 50 49 49 48 48 47 46 46
18 18 19 20 22 26 30 34 38 42 47 53 60 65 68 72 74 75 75 75 73 69 66 64 64 65 65 64 61 57 54 52 51 50 50 50 49 49 49 49 47 46 44 43
18 18 19 21 24 27 31 35 39 44 50 55 61 67 71 72 73 74 75 74 70 67 65 65 65 66 64 60 56 53 51 51 51 51 51 51 51 50 50 49 47 46 44 42
18 19 21 23 26 29 33 37 41 46 51 56 62 67 72 72 73 74 74 72 68 66 65 65 65 64 60 56 53 52 51 51 52 53 53 53 53 52 50 49 46 44 41 40
18 20 24 27 31 33 36 39 43 47 52 58 64 68 71 72 73 74 73 70 67 65 65 65 64 60 55 53 52 51 52 53 54 55 54 54 52 51 50 47 45 42 39 36
21 21 24 27 29 31 35 39 43 47 53 60 66 70 71 73 73 74 72 69 66 65 64 63 60 56 53 52 51 52 54 55 56 55 53 52 52 51 50 47 44 40 37 34
23 25 26 28 30 31 35 39 44 49 56 63 68 71 73 73 73 73 70 67 65 64 63 60 56 53 52 52 52 54 55 56 56 54 52 52 52 52 51 48 44 41 37 33
25 28 30 31 33 34 37 43 47 51 58 65 69 72 73 72 72 71 69 66 64 63 61 57 53 52 52 52 54 55 56 57 56 53 52 52 53 53 53 51 47 43 38 33
27 29 32 34 36 38 41 44 48 53 60 66 70 73 72 72 71 69 66 64 62 61 58 54 51 51 52 53 55 56 58 58 56 53 52 53 53 53 54 54 52 48 41 35
28 30 33 36 38 39 42 46 51 55 61 67 71 72 71 71 70 66 64 63 61 58 55 52 51 51 51 53 55 57 59 58 55 53 53 54 54 55 55 56 56 53 44 36
29 31 33 36 39 42 44 47 52 57 63 67 70 71 70 70 67 66 64 62 59 56 52 51 51 51 51 53 56 58 59 58 55 54 54 55 56 57 57 59 59 55 47 37
31 33 34 36 38 41 44 49 54 58 63 67 69 69 68 68 66 64 62 60 57 53 51 50 51 51 51 53 56 59 59 58 56 54 55 56 57 58 60 62 61 56 47 36
35 37 38 39 41 44 46 49 53 58 63 67 68 67 67 66 64 62 60 58 54 51 50 50 50 51 52 54 57 58 59 58 57 55 55 57 59 60 63 64 63 58 46 32
35 37 38 39 40 42 45 48 53 58 62 66 67 66 66 65 62 60 58 56 52 49 48 49 49 50 52 54 57 58 58 58 57 56 56 57 59 62 65 67 65 58 44 29
37 37 37 38 40 41 44 48 53 58 62 65 65 65 64 63 61 58 57 54 50 47 47 48 48 49 51 54 56 57 58 59 58 56 56 57 59 62 65 69 68 61 45 29
40 39 37 37 39 41 44 48 52 58 62 64 64 64 63 61 59 57 55 52 48 46 46 47 47 48 50 53 55 57 58 59 58 56 56 58 60 61 65 69 71 64 50 34
40 38 37 38 39 41 44 48 52 58 62 63 63 62 61 60 57 56 54 51 46 44 45 46 46 47 49 52 54 56 58 59 58 56 57 58 60 61 63 67 70 68 58 42

GEFSCGP_500_meanwind_030.txt.gz
Wind_Speed
9 11 12 14 16 18 19 21 22 23 26 27 29 31 31 36 40 44 49 53 58 63 67 71 75 78 80 82 83 84 84 83 80 75 71 67 63 60 58 57 56 55 54 53
11 12 14 15 17 19 20 22 23 22 24 28 29 31 32 37 42 47 52 57 61 66 71 75 78 80 82 83 83 83 82 80 77 73 70 68 65 62 60 59 58 57 57 56
12 14 15 17 18 19 21 22 24 26 25 26 31 32 34 40 45 50 55 60 65 70 75 78 80 81 82 83 83 82 80 77 74 71 68 64 61 59 56 54 53 53 54 55
14 16 17 18 20 21 21 22 23 25 28 30 32 37 37 44 50 55 59 64 69 74 78 80 81 81 82 82 82 80 77 74 71 67 64 60 57 55 53 51 49 48 48 48
16 18 19 20 21 21 22 23 24 26 29 31 33 39 43 49 54 58 63 68 73 77 79 79 81 82 82 81 80 77 74 70 66 63 61 59 57 55 53 51 50 48 46 46
18 19 20 21 22 22 23 24 25 27 32 37 41 45 47 51 56 62 67 71 75 77 78 79 81 82 81 80 78 74 70 66 63 62 61 59 58 57 54 52 50 47 45 44
18 20 20 21 21 22 24 26 30 35 37 40 42 44 48 54 60 65 69 72 74 77 79 80 81 81 80 78 75 71 66 64 63 62 61 60 59 57 54 51 48 46 45 43
20 19 20 21 22 23 25 27 31 34 37 38 41 46 52 56 61 65 69 73 76 78 79 80 80 80 78 76 72 67 65 64 63 62 62 60 58 56 52 49 47 46 45 44
20 20 21 21 22 24 26 28 31 34 37 41 45 48 53 57 61 66 71 74 77 78 78 79 79 78 76 73 69 66 65 64 63 63 62 59 56 54 50 48 47 46 45 44
20 19 20 20 22 25 27 30 33 36 40 44 46 51 55 58 63 68 72 74 76 77 78 78 78 77 74 70 67 66 65 64 64 63 61 58 55 52 49 48 47 46 46 45
20 20 19 21 23 25 28 31 33 35 39 44 50 53 55 60 65 70 72 74 76 77 77 77 77 75 71 67 66 65 65 64 64 62 59 56 54 51 50 49 49 48 47 46
21 21 20 20 22 25 29 32 35 37 40 43 48 54 56 61 67 71 73 74 75 76 76 76 75 72 68 65 64 64 65 64 63 61 58 55 53 52 51 50 50 50 49 47
23 22 22 22 23 25 27 31 34 38 40 43 48 54 58 63 68 71 73 73 74 75 75 75 73 69 65 64 64 64 65 64 63 60 57 54 53 52 52 52 52 52 51 50
25 24 24 26 27 29 31 34 35 38 41 44 48 53 59 64 68 70 72 73 74 75 74 74 70 66 64 63 64 64 64 64 62 59 56 55 54 55 56 56 56 56 55 54
29 26 25 26 27 28 31 33 35 37 40 44 48 53 59 64 68 71 72 73 74 74 73 71 67 64 62 62 63 64 64 63 61 59 57 56 57 58 59 59 59 60 61 59
35 32 28 26 26 27 29 32 34 37 40 44 49 54 60 66 69 71 72 73 73 72 72 69 65 62 61 62 63 63 63 62 60 59 58 58 59 60 60 61 62 64 62 57
39 39 36 31 29 28 30 35 37 38 41 46 51 56 61 67 69 70 72 72 72 71 70 66 62 60 60 61 63 63 63 62 60 59 58 59 61 61 62 63 66 67 62 52
42 43 41 38 35 32 35 36 39 41 42 47 52 57 62 67 70 70 71 71 71 70 68 64 60 58 59 61 62 62 62 61 60 59 59 61 63 63 64 66 69 68 59 46
44 46 46 44 41 38 37 39 42 44 44 49 53 58 63 67 70 69 70 69 69 68 66 62 58 57 58 60 61 62 61 60 59 59 61 63 64 65 66 68 71 68 57 43
44 46 47 46 44 42 41 41 43 46 47 51 55 59 64 67 69 69 69 68 67 67 64 60 57 56 57 59 60 60 59 59 60 60 62 64 66 67 68 69 72 68 57 44
45 48 49 49 46 42 43 43 45 46 50 52 55 59 63 67 68 68 67 66 66 65 63 59 56 55 56 58 59 59 59 60 60 61 63 65 66 68 68 69 72 69 59 46
46 50 53 54 53 48 47 45 45 47 49 52 56 60 63 66 67 66 65 65 65 64 61 57 54 54 55 57 57 58 59 60 60 61 62 64 66 67 68 68 69 69 61 50
44 49 52 54 52 51 48 46 46 47 50 52 56 60 63 66 66 65 64 64 64 63 60 56 53 53 54 55 56 57 58 58 59 60 61 62 65 67 68 68 68 68 65 56
44 48 51 53 54 52 49 47 47 48 50 53 56 60 63 65 65 64 63 63 62 62 59 55 52 52 52 54 55 56 56 57 58 59 60 61 63 66 68 68 68 68 67 63
46 50 52 53 55 54 50 48 48 49 51 53 57 60 62 64 64 63 62 61 61 60 58 54 51 50 51 52 54 54 55 55 56 57 58 60 62 64 66 68 69 68 67 66
44 48 52 54 56 56 52 50 49 50 51 54 57 59 61 63 63 62 61 60 60 59 57 54 51 49 49 51 52 52 53 53 54 55 56 58 60 62 64 66 67 68 67 65

GEFSCGP_500_meanwind_036.txt.gz
Wind_Speed
12 13 14 15 15 16 16 16 16 18 19 20 21 23 26 31 34 36 39 42 46 51 56 61 66 71 75 78 80 84 86 88 88 86 81 76 73 72 71 70 68 65 62 59
11 12 14 15 16 17 18 18 18 19 20 22 23 24 28 32 34 37 40 45 50 55 60 65 69 74 77 79 82 85 87 87 86 82 77 75 73 72 70 67 63 60 57 53
13 14 16 16 17 18 18 18 18 19 21 23 25 25 29 32 35 39 43 48 53 58 63 68 72 75 78 80 83 85 86 85 82 78 75 74 72 69 65 60 56 53 50 48
14 15 16 17 17 18 18 18 19 21 22 26 29 29 30 34 38 42 47 51 56 61 66 70 73 76 78 80 83 85 85 82 78 76 75 74 71 66 61 56 52 49 48 46
15 16 17 17 18 19 19 20 21 22 24 26 29 31 33 37 41 45 49 53 58 63 67 71 73 75 78 81 83 83 81 78 76 76 75 73 69 63 57 52 49 47 47 47
15 16 17 18 19 20 21 22 23 24 25 28 31 34 36 40 43 47 51 56 60 65 68 71 73 75 78 81 82 81 78 76 75 75 73 71 65 59 54 50 48 48 47 48
17 17 18 19 20 21 22 24 26 28 29 31 33 35 38 41 45 49 53 57 61 65 68 71 73 75 78 80 80 78 76 74 74 73 71 67 62 57 53 51 51 51 51 51
18 18 19 19 20 22 24 26 29 32 33 33 34 36 39 43 47 50 55 58 62 65 69 71 73 76 78 79 78 76 73 73 73 71 68 64 61 57 55 55 56 56 56 55
20 19 20 20 22 24 26 28 30 32 35 35 36 39 42 45 48 52 55 59 62 66 69 71 73 76 78 78 76 74 72 72 71 70 66 63 60 58 57 58 60 61 61 59
23 22 23 23 24 26 28 30 32 33 37 39 40 40 43 46 49 52 56 60 64 67 69 71 73 76 77 76 74 72 71 71 70 68 65 63 60 59 60 62 64 64 64 64
26 25 25 25 25 27 28 30 31 32 34 38 42 41 43 46 49 53 57 61 64 67 69 71 73 76 76 74 72 69 69 69 68 66 64 62 61 62 64 66 68 68 69 67
28 28 28 27 27 28 28 29 31 33 35 37 41 42 44 47 50 54 58 61 65 67 69 71 73 74 74 71 69 68 68 68 67 65 64 63 63 65 67 68 70 72 71 65
29 31 31 30 30 29 29 30 31 33 35 37 39 41 44 47 50 54 58 62 65 67 68 70 72 73 71 69 67 66 67 66 66 65 64 64 65 66 68 70 73 74 68 60
29 32 34 35 35 35 33 33 33 34 35 36 38 40 44 47 51 55 59 62 65 67 68 69 71 71 70 67 66 65 65 65 65 65 64 65 65 67 70 73 75 73 66 55
27 31 34 37 37 37 36 35 34 34 34 36 38 40 44 47 51 55 59 62 65 66 67 68 69 70 68 66 64 64 64 64 64 64 64 65 66 69 71 74 75 71 63 51
25 29 32 35 37 38 39 38 36 35 35 36 39 41 44 47 51 55 59 62 64 65 65 67 68 68 66 64 62 62 63 63 63 63 64 65 67 69 71 74 75 71 62 50
24 28 32 35 38 41 43 43 40 38 37 39 41 43 45 48 52 56 59 62 63 63 64 65 67 67 65 62 61 61 62 62 62 62 63 65 67 69 71 73 74 71 63 52
24 28 32 36 40 44 46 47 46 43 41 42 42 44 46 49 52 56 59 61 62 62 63 64 66 65 63 61 60 60 60 60 60 61 62 64 66 68 70 72 73 72 65 55
24 28 33 37 41 44 48 50 51 49 44 44 45 46 48 50 53 55 58 60 61 61 62 63 64 64 62 60 58 58 58 58 59 60 61 63 65 66 68 70 71 71 67 59
23 27 32 36 40 45 49 52 53 52 49 48 47 48 49 50 52 55 57 60 61 60 61 62 63 63 61 59 57 56 56 56 57 58 60 61 63 65 67 69 70 70 69 64
23 27 31 35 39 43 49 52 55 53 52 51 49 48 49 49 51 54 57 59 60 60 60 61 62 61 60 57 55 55 55 55 55 57 58 60 61 63 66 68 69 69 68 66
25 29 33 37 41 44 48 51 54 54 53 51 49 48 49 50 51 54 57 59 59 59 59 60 61 60 58 56 54 53 53 53 54 55 56 58 59 61 63 65 66 66 66 65
25 29 32 35 39 42 45 49 53 55 54 52 50 49 49 50 51 54 56 58 59 59 59 59 59 59 58 55 53 52 51 52 52 53 54 55 57 59 60 62 63 64 64 63
27 28 31 35 38 42 45 49 53 55 56 54 52 50 50 50 51 53 56 58 58 58 58 58 58 58 57 54 52 50 50 50 50 51 51 53 54 56 57 59 60 61 61 62
29 31 33 35 39 41 45 48 52 55 57 56 53 51 50 50 51 53 55 57 58 57 57 57 57 57 56 54 51 50 49 49 49 49 49 50 52 54 56 57 58 59 60 60
31 32 35 37 40 43 46 48 51 55 57 56 54 52 50 50 51 52 54 56 57 56 56 56 56 55 55 53 51 49 48 47 48 48 48 49 50 51 53 55 56 57 58 59

GEFSCGP_500_meanwind_042.txt.gz
Wind_Speed
12 13 15 16 17 18 20 20 21 21 21 21 22 23 26 27 29 32 34 37 40 44 47 51 55 58 63 67 71 74 78 81 84 87 89 89 87 84 83 81 80 76 71 67
13 14 16 17 18 18 19 19 20 20 21 22 22 23 26 28 30 33 36 39 42 46 49 53 57 61 65 69 72 76 79 82 86 89 89 87 84 82 80 78 75 71 67 64
13 14 16 17 17 18 18 19 20 21 22 23 23 23 27 29 31 34 37 41 44 48 51 55 59 63 66 70 73 76 79 83 87 88 87 84 81 79 77 75 71 67 65 63
12 14 15 16 17 18 19 19 21 22 23 24 26 25 27 30 33 36 39 42 46 49 53 57 60 64 67 71 74 77 80 84 87 86 84 82 79 78 76 73 69 66 64 64
12 14 15 16 17 18 19 20 21 22 23 24 26 27 29 32 35 38 41 44 47 51 54 58 61 65 68 71 74 78 81 84 85 84 82 79 78 77 75 71 68 66 66 68
12 14 15 17 18 19 20 20 21 22 23 24 27 29 31 34 36 39 42 45 49 52 55 58 62 66 69 71 75 78 81 83 83 82 79 78 76 75 73 70 68 67 69 71
13 15 16 18 19 21 22 23 24 24 25 26 28 29 32 34 37 40 44 47 50 53 56 59 63 66 69 72 75 78 80 81 81 79 77 76 75 75 73 71 71 71 73 74
15 16 18 20 21 22 24 26 27 28 28 26 27 28 31 34 38 42 45 48 50 53 56 60 63 66 69 71 74 77 80 80 79 77 75 74 74 74 72 72 73 75 76 75
16 18 20 21 22 24 26 27 29 30 30 28 28 31 33 37 40 43 46 48 51 54 56 60 63 66 69 71 74 77 78 78 77 75 73 72 73 73 72 73 74 76 76 73
16 17 20 22 24 26 28 30 31 32 35 34 32 33 36 39 41 44 46 49 51 54 57 60 64 66 68 71 74 76 77 77 75 73 71 71 72 72 72 73 74 75 75 71
14 17 19 22 25 27 30 31 33 33 34 36 37 35 39 40 42 45 47 49 52 54 57 61 64 66 68 70 73 75 76 75 73 71 70 70 70 71 72 72 74 74 73 69
12 15 18 21 25 28 30 33 34 35 36 37 38 38 41 41 43 45 47 49 52 55 58 61 64 66 67 70 72 74 74 73 71 69 68 68 69 70 71 71 72 73 71 67
10 13 16 20 24 27 30 33 35 37 38 39 40 40 42 43 44 46 48 50 53 55 58 61 63 65 67 69 71 72 72 71 69 67 66 67 67 68 69 70 71 72 70 66
9 12 15 19 22 25 29 33 36 39 41 42 43 44 44 46 46 47 49 51 53 56 58 61 63 65 67 68 70 71 70 69 67 66 65 65 66 67 68 69 70 70 70 66
9 12 15 18 21 24 28 31 35 39 42 44 45 47 48 48 48 49 50 51 54 56 58 61 63 64 66 67 69 69 69 67 66 64 64 64 64 65 67 68 69 69 69 67
9 12 15 18 20 23 25 29 33 38 42 45 48 49 51 51 51 50 50 52 54 56 58 61 62 64 65 66 68 68 67 66 64 63 63 62 62 63 65 66 67 68 67 67
12 13 14 17 20 23 25 29 32 36 41 46 49 52 53 54 53 52 52 53 54 56 59 61 62 63 64 65 66 66 66 64 63 62 61 61 61 62 63 64 65 66 66 66
15 16 17 19 21 25 29 31 33 36 41 45 49 53 55 56 56 55 54 54 55 57 59 60 61 62 63 64 65 65 65 64 62 61 60 60 60 61 62 63 63 64 65 65
19 19 20 22 24 25 28 32 35 38 40 44 49 53 56 58 59 58 57 56 56 57 58 60 61 62 62 63 64 64 64 63 61 60 59 59 59 60 60 61 62 63 63 64
23 22 23 25 27 29 31 34 37 40 43 46 50 53 57 60 60 60 59 57 56 57 58 60 61 61 62 62 63 63 63 62 61 59 58 58 58 59 59 60 60 61 62 62
27 25 25 26 28 30 32 35 38 40 44 47 50 53 56 59 61 61 60 58 57 57 58 60 61 61 61 61 62 62 62 61 60 58 57 57 57 58 58 59 59 59 60 61
30 29 28 28 29 32 33 36 38 40 43 46 49 52 56 59 61 62 61 59 58 57 58 59 60 60 60 60 61 61 61 61 59 58 57 56 56 57 57 57 57 57 57 58
33 32 31 30 30 33 34 36 38 41 43 46 49 52 55 58 61 63 62 61 59 58 58 59 60 60 59 59 60 60 61 60 58 57 56 56 56 56 56 56 55 55 55 55
35 34 34 32 30 34 35 37 39 42 44 46 49 52 54 58 60 63 63 61 60 58 58 58 59 59 59 59 59 59 60 59 57 56 55 55 55 55 56 55 54 53 53 53
37 36 36 35 34 35 35 38 40 42 44 46 49 52 54 57 59 62 63 62 61 59 58 58 58 58 58 58 58 58 59 58 57 55 54 54 54 54 54 55 54 53 52 53
36 36 38 38 38 39 37 39 42 44 45 47 49 51 54 56 58 61 62 62 61 59 58 57 57 58 57 57 57 57 57 57 56 54 53 52 52 52 53 53 54 54 52 51

GEFSCGP_500_meanwind_048.txt.gz
Wind_Speed
11 11 12 13 14 14 14 15 16 17 18 19 20 22 24 24 25 26 28 30 32 35 38 41 43 46 48 51 55 59 63 67 70 74 77 81 85 88 89 88 85 82 79 78
9 10 11 12 12 13 14 14 15 17 18 19 19 21 24 24 25 26 28 30 33 36 39 42 44 47 50 53 57 61 65 68 71 74 78 82 85 87 87 84 81 79 77 76
8 8 9 10 11 12 13 14 16 17 18 19 20 20 23 23 24 26 28 31 34 37 40 43 46 49 51 55 59 63 66 69 72 75 79 82 85 86 84 81 78 76 75 75
6 6 7 8 10 12 13 15 16 17 19 20 21 20 23 24 25 26 29 32 35 38 41 44 47 50 53 56 60 64 67 70 72 76 79 82 84 83 81 78 76 74 74 73
3 5 6 8 10 12 14 16 17 18 19 20 21 22 23 25 26 28 31 34 37 40 43 46 49 51 54 57 61 65 68 70 73 76 79 81 82 81 79 76 74 73 72 72
2 4 6 8 10 12 14 16 17 19 20 21 23 24 25 27 28 30 33 35 38 41 44 47 49 52 55 58 62 66 68 70 73 76 79 81 81 79 76 73 72 71 71 71
1 3 5 8 10 12 14 16 18 21 22 23 24 26 27 29 30 32 35 37 40 42 45 47 50 53 56 59 63 66 68 70 73 76 78 79 79 77 74 72 70 70 69 69
1 1 4 6 9 11 14 16 20 22 23 23 26 28 30 32 33 36 38 40 41 43 45 48 51 54 57 60 63 66 68 70 72 75 77 78 77 75 73 71 69 69 69 68
2 1 2 5 8 11 13 16 19 21 23 25 28 30 32 35 37 39 41 42 44 45 47 49 52 54 57 60 64 66 68 69 72 74 76 77 76 74 71 69 68 68 68 67
4 3 3 5 8 10 13 16 20 23 26 28 30 33 35 38 40 42 44 46 47 48 49 51 53 56 58 61 64 66 67 69 71 73 75 75 74 72 70 68 67 67 66 66
6 5 5 6 9 11 14 17 20 23 26 29 31 33 35 38 41 44 47 49 50 51 52 54 55 57 59 61 64 66 67 69 71 73 74 74 73 70 69 67 66 65 65 65
9 8 8 9 10 12 14 17 20 22 25 27 30 33 36 39 42 45 48 51 53 54 55 56 57 58 59 62 64 66 67 68 70 72 73 73 71 69 68 66 65 64 64 64
12 11 11 11 12 13 15 18 20 23 25 27 30 32 36 39 42 45 49 52 55 57 58 59 59 60 60 62 64 66 67 68 69 71 72 71 70 68 67 65 63 63 63 63
16 15 15 14 15 16 17 19 21 24 26 28 30 32 35 39 42 46 49 52 56 58 60 61 61 62 62 63 64 66 66 67 69 70 71 70 69 67 66 64 63 62 62 62
19 19 18 18 17 17 19 20 22 25 28 30 31 34 36 39 43 46 49 53 56 59 61 63 64 64 63 64 65 66 66 67 68 69 70 70 68 67 65 63 62 61 61 61
23 22 22 21 21 21 20 22 24 26 29 31 33 34 37 40 43 46 50 53 56 59 62 64 66 66 65 64 65 66 66 66 67 68 69 69 67 66 64 63 61 60 59 59
27 27 26 24 24 24 23 24 26 27 30 32 34 36 38 40 43 47 49 52 56 59 62 64 66 68 67 66 66 66 66 66 67 68 68 68 67 65 64 62 60 59 58 58
30 30 30 29 28 27 26 27 29 29 31 33 35 37 39 41 43 47 50 52 56 59 62 64 66 68 68 67 66 66 66 66 66 67 68 67 66 65 63 61 60 59 58 57
33 33 34 33 33 31 29 30 32 32 31 34 36 38 40 42 44 46 49 52 55 58 61 64 66 68 69 68 67 66 66 65 66 66 67 67 65 64 62 60 59 58 57 56
36 37 37 37 37 35 32 34 35 35 35 35 37 39 42 44 46 48 50 52 55 58 61 63 66 68 69 69 67 66 66 65 65 66 66 67 65 63 61 60 58 57 56 56
38 39 40 39 40 37 35 36 37 37 38 39 40 41 43 45 47 49 50 52 54 57 60 63 65 67 68 69 68 66 66 65 64 65 66 66 65 62 61 59 57 56 55 55
40 41 41 41 41 38 37 37 39 40 40 40 42 43 44 45 47 48 50 52 54 56 59 62 64 66 67 69 68 67 66 64 64 64 65 65 65 62 60 58 56 55 54 53
41 42 44 43 40 37 37 39 41 43 42 42 43 44 45 46 47 48 49 51 53 55 58 61 63 65 66 68 68 67 66 64 63 63 64 64 64 63 60 57 55 54 53 52
44 43 45 44 38 35 37 40 42 44 44 44 45 45 46 47 48 48 49 50 52 54 57 59 62 64 65 66 68 67 65 64 63 62 63 63 63 63 60 57 54 53 51 50
47 45 44 43 36 34 37 39 41 43 45 46 46 46 47 48 48 49 48 49 51 53 55 58 60 62 64 65 66 67 65 64 62 61 61 62 62 62 60 58 54 52 51 49
51 47 45 43 38 40 39 38 40 43 44 46 47 47 47 49 49 49 48 49 51 52 54 56 59 61 62 64 65 66 65 63 61 60 60 61 61 61 59 56 54 52 50 49

GEFSCGP_500_meanwind_054.txt.gz
Wind_Speed
11 10 9 8 8 8 9 9 10 11 11 12 13 14 15 16 19 21 23 26 28 30 32 35 37 39 41 43 46 48 50 52 55 57 60 64 67 70 73 77 82 86 89 91
10 9 8 7 6 6 7 8 9 9 11 12 13 14 15 17 20 22 24 27 29 31 33 35 37 40 42 44 46 48 50 53 55 58 61 64 68 71 74 78 83 86 89 88
9 8 7 6 5 5 5 7 8 8 9 11 13 13 15 17 20 22 25 27 29 32 34 36 38 41 43 45 47 49 51 53 56 59 62 65 68 71 75 79 83 86 87 84
9 8 7 6 5 4 4 6 7 7 8 9 11 13 15 18 20 23 25 28 30 33 35 38 40 42 44 47 49 51 53 55 57 60 63 66 69 72 75 79 83 85 84 82
10 8 7 6 5 5 4 5 6 7 8 10 12 13 15 18 20 23 26 28 31 34 37 40 42 44 47 49 52 54 55 57 59 61 64 67 70 72 76 80 82 83 81 79
11 10 9 8 7 6 6 6 7 8 8 10 13 15 17 19 21 24 26 29 32 35 38 41 44 46 49 52 55 57 59 60 61 63 66 68 70 73 76 79 81 81 79 76
12 11 10 10 9 8 8 8 9 9 10 11 14 15 17 20 22 25 28 30 33 36 39 42 45 48 51 54 57 59 62 63 64 65 67 69 71 73 76 79 80 80 77 74
14 13 12 12 11 11 10 11 11 12 12 13 15 16 18 20 23 26 29 32 35 37 40 43 47 50 53 56 59 61 64 65 66 67 69 71 72 73 76 78 79 79 76 72
16 15 15 14 14 13 13 13 13 14 15 15 17 18 19 22 24 27 30 33 36 39 41 45 48 51 54 57 60 63 65 67 69 69 70 72 72 74 76 78 78 77 74 71
18 17 16 16 16 16 16 16 16 16 18 19 20 22 25 27 29 31 32 34 36 39 42 46 49 52 55 58 61 64 67 69 70 71 72 73 73 74 75 77 77 75 73 70
20 19 19 19 18 18 18 19 19 20 21 23 24 24 27 29 31 34 36 37 39 42 44 47 50 53 56 59 62 65 68 70 71 73 73 73 73 74 75 76 76 74 72 69
22 22 22 21 22 22 22 22 22 23 24 25 28 27 29 31 33 35 37 39 41 43 45 48 51 54 57 60 63 66 68 70 72 73 74 74 74 74 74 75 75 73 71 68
24 25 25 25 26 25 25 25 26 27 28 29 30 30 33 34 35 37 38 40 42 44 46 49 51 54 57 60 63 66 68 71 72 74 75 75 74 74 74 75 74 72 70 67
28 28 29 29 29 29 29 28 29 31 32 33 32 32 33 37 39 41 42 43 45 46 48 50 52 55 57 60 63 66 68 71 72 74 75 75 74 74 74 74 74 71 69 66
32 32 32 32 33 34 33 32 32 34 34 37 36 35 35 38 40 41 43 45 46 48 49 51 53 55 57 60 62 65 68 70 72 74 75 76 75 74 74 74 73 71 68 66
34 35 36 35 36 38 37 34 35 37 37 38 39 38 38 41 41 42 44 46 47 49 50 52 53 55 57 60 62 65 67 70 72 74 75 76 75 74 73 73 73 70 67 65
36 38 39 39 39 41 40 36 37 40 40 41 42 41 42 44 43 44 46 47 48 50 51 53 53 55 57 59 61 64 66 69 71 73 74 75 75 74 73 73 72 70 67 64
38 39 42 43 43 45 39 38 39 41 41 43 44 44 46 46 45 45 47 49 50 51 52 53 54 54 56 59 61 63 65 68 70 72 73 75 75 73 72 72 71 70 67 64
40 40 42 45 47 48 42 40 41 43 43 43 45 46 47 48 47 46 48 49 50 51 52 53 53 54 56 58 60 62 64 67 69 71 72 74 74 73 72 71 71 69 67 64
41 42 44 46 48 50 45 42 42 44 45 45 46 47 48 49 50 49 50 51 51 52 52 53 53 53 55 57 59 61 64 66 68 70 71 72 73 73 71 70 70 69 67 64
44 44 45 47 49 51 45 44 44 44 44 46 48 49 50 52 52 53 53 53 53 53 53 53 54 54 54 56 58 61 63 65 67 69 70 71 72 72 70 69 69 68 66 63
49 49 48 48 51 49 45 44 43 43 45 47 50 51 52 53 53 53 53 54 54 54 54 54 55 54 55 56 58 60 63 65 66 67 68 69 70 71 69 68 67 67 65 62
55 53 53 54 53 50 48 45 44 45 47 49 51 52 54 55 55 54 54 54 54 55 55 55 55 55 55 56 58 60 62 64 65 66 67 68 69 69 68 66 66 65 64 62
60 59 60 60 57 53 52 50 48 49 51 52 53 54 56 57 57 56 56 56 56 56 56 56 56 56 57 58 59 60 62 63 64 65 65 66 67 67 67 65 64 64 63 61
63 65 65 65 61 60 58 56 56 56 56 57 57 57 58 59 59 58 58 58 59 59 59 58 58 58 58 59 60 61 62 63 63 63 64 64 65 66 65 64 63 63 63 62
62 65 67 67 64 67 65 62 62 63 62 61 61 61 60 61 62 62 62 61 61 62 62 61 60 60 60 60 61 61 62 62 62 62 62 62 63 63 63 62 61 61 62 61

GEFSCGP_500_meanwind_060.txt.gz
Wind_Speed
12 13 12 12 11 10 9 9 9 9 8 8 7 7 7 7 7 8 9 10 12 13 15 17 19 22 24 27 30 33 35 37 39 41 43 45 48 51 53 55 57 59 61 63
13 13 13 13 13 12 12 11 10 10 9 9 9 8 8 8 8 9 10 11 12 14 15 18 20 23 25 28 31 34 37 39 41 43 45 47 50 53 55 57 60 61 63 65
14 15 15 15 15 14 14 13 12 12 12 11 11 11 11 11 11 11 12 13 14 15 17 19 21 24 27 29 32 35 38 41 43 45 47 50 52 55 58 60 62 64 66 68
15 16 16 16 17 16 15 15 14 14 14 14 14 14 13 14 14 14 15 16 17 18 19 21 23 26 28 30 33 36 39 42 45 47 50 52 54 57 60 62 64 66 68 70
16 17 17 18 18 18 17 17 17 17 17 17 17 17 16 17 17 18 19 20 20 21 22 24 26 28 31 33 35 38 41 44 47 49 51 54 56 59 61 64 66 68 69 71
17 18 19 19 19 19 19 19 20 20 20 19 19 20 19 19 20 21 22 23 24 25 26 28 29 31 34 36 38 40 42 45 48 51 53 55 58 60 63 65 67 69 71 72
18 19 20 20 21 21 21 21 22 23 23 22 23 23 21 22 23 23 25 26 27 29 30 31 33 35 37 39 41 42 44 47 49 52 54 57 59 61 64 66 69 70 72 73
20 20 21 21 22 22 23 23 25 26 26 25 26 26 24 25 26 26 28 29 30 31 33 34 36 38 40 41 43 45 46 48 50 53 56 58 60 63 65 67 70 71 72 73
21 21 22 22 23 24 24 25 27 29 30 30 30 29 26 27 29 30 31 32 33 34 35 37 38 40 42 44 45 47 48 50 51 54 56 59 61 64 66 68 71 72 73 74
23 22 22 23 24 25 27 28 29 31 33 34 33 31 29 29 31 33 34 35 37 37 39 40 41 42 44 46 47 49 50 51 53 55 57 59 61 64 67 69 71 73 74 74
25 25 23 25 26 27 28 29 31 33 36 38 39 34 31 33 35 36 38 39 40 41 42 43 43 45 46 48 49 51 52 53 54 55 57 60 62 65 68 69 72 73 74 74
27 27 26 26 27 29 30 31 33 36 38 41 44 39 32 35 37 40 42 43 44 44 44 45 46 47 48 49 51 52 53 54 55 56 58 60 62 65 68 70 72 73 73 73
30 30 29 28 29 31 33 34 36 39 42 44 46 43 35 37 40 43 46 47 47 46 46 47 48 49 50 51 53 53 54 55 55 56 58 60 63 65 68 70 72 73 73 73
33 32 32 32 32 35 36 36 38 42 44 47 47 46 40 38 43 46 48 49 49 49 49 50 50 51 52 53 54 55 55 56 56 57 59 61 63 65 68 70 72 73 72 72
36 36 35 34 35 39 40 39 39 42 44 48 48 48 45 44 47 48 48 49 50 50 50 51 52 53 53 54 55 56 56 57 57 58 59 61 63 66 68 70 72 72 72 71
39 39 39 38 37 41 44 41 40 42 45 47 49 49 45 47 49 49 49 49 50 50 51 52 54 54 55 56 57 57 57 57 58 59 60 62 64 66 68 70 71 71 70 70
40 42 43 44 42 45 45 40 41 43 44 45 47 47 47 48 49 49 49 50 51 51 52 54 55 55 56 57 58 58 58 58 59 60 61 62 64 66 68 70 71 70 69 69
42 42 45 47 47 50 45 43 43 44 45 45 46 46 47 48 49 49 50 51 51 52 53 55 56 57 57 58 58 59 58 59 60 61 62 64 65 67 68 69 69 69 68 67
44 45 47 50 52 53 47 44 46 48 48 46 48 48 48 49 50 50 51 52 53 54 56 57 58 58 58 59 59 60 60 60 61 62 63 64 65 67 68 68 68 67 67 66
47 48 50 52 55 56 50 49 50 51 51 50 51 50 51 52 54 53 53 54 55 56 58 59 60 60 60 60 60 60 61 61 62 62 63 64 65 66 67 66 66 66 65 64
51 52 53 55 58 58 52 52 53 53 53 54 54 55 56 57 58 59 59 59 60 60 61 62 62 62 61 61 61 61 61 62 63 63 63 63 64 64 65 64 64 64 63 62
54 55 55 56 59 58 54 55 55 57 58 59 59 59 60 61 61 62 62 62 62 63 64 64 64 63 62 62 62 62 62 62 63 63 63 63 63 62 62 62 62 62 60 60
55 56 57 59 59 58 58 59 59 60 63 63 63 62 62 62 62 62 62 62 62 63 63 63 63 62 62 62 62 62 62 62 62 62 62 62 62 61 60 60 60 59 58 57
54 55 57 59 58 57 58 60 61 62 64 64 64 63 62 62 61 61 61 60 60 60 60 60 60 60 59 59 59 59 60 60 60 60 60 60 59 59 59 57 57 56 56 55
52 52 54 55 53 55 56 58 60 61 61 62 61 61 62 61 60 58 57 56 56 56 56 56 56 55 55 56 56 57 58 58 58 58 58 57 57 56 56 54 54 53 53 52
42 45 48 48 47 51 50 51 52 53 54 55 55 55 54 54 54 53 53 53 53 53 53 53 53 53 53 54 54 54 55 55 55 55 56 56 55 54 53 51 50 50 50 50